Regional Weather Roundup
Issued by NWS

Home | Current Version | Previous Version | Text Only | Print | Product List | Glossary On
Versions: 1 2 3 4 5 6 7 8 9 10 11 12 13 14 15 16 17 18 19 20 21 22 23 24 25 26 27 28 29 30 31 32 33 34 35 36 37 38 39 40 41 42 43 44 45 46 47 48 49 50
000
ASUS43 KLSX 160407
RWRMO

WEATHER SUMMARY FOR MISSOURI
NATIONAL WEATHER SERVICE SPRINGFIELD MO
1100 PM CDT MON SEP 15 2014

NOTE: "FAIR" INDICATES FEW OR NO CLOUDS BELOW 12,000 FEET WITH NO
       SIGNIFICANT WEATHER AND/OR OBSTRUCTIONS TO VISIBILITY.
       CURRENT SKY AND/OR WEATHER CONDITIONS ARE NOT AVAILABLE FOR
       CHILLICOTHE AND FARMINGTON.

MOZ001>031-035>038-043-044-053-054-160500-
...NORTHERN AND WESTERN MISSOURI...

CITY           SKY/WX    TMP DP  RH WIND       PRES   REMARKS
KANSAS CTY INT CLEAR     53  50  89 NE7       30.24R
KANSAS C DTWN  CLEAR     56  50  80 NE6       30.24R
LEE`S SUMMIT   PTCLDY    56  51  84 NE6       30.25R
ST JOSEPH      MOCLDY    53  49  86 N7        30.26R
CHILLICOTHE      N/A     53  51  93 CALM      30.26R
KIRKSVILLE     CLOUDY    55  52  89 N3        30.24R

$$
MOZ066>068-077>081-088>096-101>105-160500-
...SOUTHWEST MISSOURI...

CITY           SKY/WX    TMP DP  RH WIND       PRES   REMARKS
SPRINGFIELD    CLOUDY    68  64  87 N12       30.17R
JOPLIN         CLOUDY    66  64  93 NE8       30.19R

$$
MOZ032>034-039>042-045>050-055>058-069>072-160500-
...CENTRAL MISSOURI...

CITY           SKY/WX    TMP DP  RH WIND       PRES   REMARKS
COLUMBIA       CLOUDY    61  57  87 N8        30.20R
JEFFERSON CITY CLOUDY    64  58  80 N12       30.19R
ROLLA          CLOUDY    62  57  83 NE7       30.17R
SEDALIA        CLOUDY    60  54  80 N8        30.22R
WHITEMAN AFB   CLOUDY    58  53  83 N8        30.22R
OSAGE BEACH    MOCLDY    63  57  82 CALM      30.19R

$$
MOZ051-052-059>065-160500-
...EAST CENTRAL MISSOURI...

CITY           SKY/WX    TMP DP  RH WIND       PRES   REMARKS
ST LOUIS INTL  MOCLDY    62  58  86 N7        30.17R
SPIRIT OF STL  CLOUDY    63  59  87 N3        30.17R
ST CHARLES     CLEAR     59  57  93 N7        30.17R

$$
MOZ072>076-082>087-097>100-106>115-160500-
...SOUTH CENTRAL AND SOUTHEAST MISSOURI...

CITY           SKY/WX    TMP DP  RH WIND       PRES   REMARKS
CAPE GIRARDEAU CLOUDY    70  66  87 NW6       30.11R
FARMINGTON     CLOUDY    63  61  94 N6        30.17R
POPLAR BLUFF   MOCLDY    67  63  87 CALM      30.10R
WEST PLAINS    MOCLDY    70  66  87 N6        30.16R

$$


USA.gov is the U.S. government's official web portal to all federal, state and local government web resources and services.